SCP
1 0 0 0 1 1 0 0 0 0 0 0 1 1 3 3 3 3 3 2 2 4 5 5 5 5 6 6 6 7 6 6 5 5 3 3 4 7 9 8 5 3 2 1
1 0 0 0 0 1 0 0 0 0 0 0 0 1 3 3 3 3 3 3 3 4 5 5 6 6 7 7 7 8 7 6 6 5 4 4 7 10 11 9 6 4 2 2
1 0 0 0 0 0 0 0 0 0 0 0 1 1 2 4 4 4 4 4 5 5 6 7 8 8 8 8 8 8 8 8 7 6 5 6 10 13 13 11 7 5 3 2
0 0 0 0 0 0 0 0 0 0 0 0 1 1 2 4 6 6 6 6 7 7 8 10 12 11 10 9 9 9 9 8 7 6 5 7 11 14 13 10 7 5 3 2
0 0 0 0 0 0 0 0 0 0 0 0 1 1 2 4 6 8 8 8 9 10 12 14 14 13 12 11 10 10 10 8 7 5 5 8 12 13 11 8 6 4 3 2
0 0 0 0 0 0 0 0 0 0 1 0 1 1 2 3 6 8 9 9 8 9 12 13 14 13 12 11 11 12 11 9 7 5 5 8 11 11 9 6 4 3 3 3
0 0 0 0 0 0 0 0 0 1 0 0 1 2 2 3 4 6 8 8 7 6 7 9 11 10 9 9 11 11 11 10 7 6 5 7 9 8 6 5 4 4 3 3
0 0 0 0 0 0 0 0 0 0 0 0 1 2 3 3 3 5 8 7 5 4 4 5 6 7 7 7 8 9 10 10 9 7 6 6 6 6 5 5 5 4 4 3
0 0 0 0 0 0 0 0 0 0 0 0 1 2 3 3 3 4 6 5 3 3 3 4 5 6 6 6 6 7 9 11 11 9 7 6 6 5 5 5 5 5 4 3
0 0 0 0 0 0 0 0 0 0 0 0 0 1 2 2 3 4 4 3 3 3 3 4 5 6 6 6 6 7 9 11 12 11 9 7 6 6 6 6 6 5 4 5
0 0 0 0 0 0 0 0 0 0 0 0 0 1 2 2 2 3 3 3 3 4 4 5 6 6 6 6 7 7 8 11 12 12 11 9 7 7 6 7 7 7 7 7
0 0 0 0 0 0 0 0 0 0 0 0 0 1 2 2 3 3 3 4 4 5 5 5 6 6 7 9 8 6 7 10 12 13 12 10 8 7 7 8 8 8 8 8
0 0 0 0 0 0 0 0 0 0 0 0 0 1 2 3 4 4 5 5 5 5 5 5 6 8 10 11 10 6 6 9 11 12 12 10 8 7 7 7 8 9 8 7
0 0 0 0 0 0 0 0 0 0 0 1 1 1 2 4 5 5 5 5 4 4 4 5 8 11 12 12 9 7 6 8 11 12 11 10 9 8 7 7 8 7 6 5
0 0 0 0 0 0 0 0 0 0 1 1 1 2 3 4 4 4 4 4 3 4 5 8 12 14 12 10 8 7 7 8 11 12 12 11 10 9 7 7 6 6 5 5
0 0 0 0 0 0 0 0 0 1 1 1 2 3 3 3 3 3 3 3 3 5 10 14 14 13 10 8 7 6 6 9 13 14 12 11 10 9 8 7 6 6 6 6
0 0 0 0 0 0 0 0 0 1 1 1 2 2 2 2 2 3 3 3 4 7 14 16 12 10 8 7 6 6 6 9 13 14 12 9 9 8 8 7 7 8 8 7
1 1 1 1 1 1 0 0 1 1 1 2 1 2 2 2 2 4 5 4 5 9 14 13 9 8 8 7 7 7 8 9 11 10 9 7 6 6 6 6 7 7 7 7
1 1 1 1 1 1 1 0 1 1 2 2 1 1 2 2 3 4 5 5 7 12 13 10 8 8 8 7 7 8 8 8 7 6 6 5 4 4 4 4 5 5 5 5
1 1 1 1 1 1 1 0 1 1 2 1 1 1 2 3 3 4 5 6 9 12 11 9 8 8 7 6 6 6 5 5 5 4 4 3 3 3 3 4 4 4 3 3
0 1 1 1 1 1 1 1 1 2 2 2 3 3 3 4 5 5 5 6 8 10 9 8 7 6 5 4 4 4 4 4 4 5 4 4 4 3 3 4 5 4 4 3
1 1 1 1 1 2 2 1 2 3 3 4 4 4 4 5 5 5 6 6 7 8 8 6 5 5 4 4 5 5 5 5 6 7 7 6 6 5 5 5 5 5 4 4
2 3 3 2 2 2 2 2 3 4 5 5 5 5 4 4 5 6 7 8 8 8 6 5 4 5 6 6 7 7 7 7 8 8 8 9 8 6 6 6 6 5 5 4
4 4 4 3 3 2 3 3 4 5 6 6 5 5 4 4 5 7 9 9 8 6 5 4 4 5 6 8 9 8 8 8 9 8 8 9 9 7 6 6 6 6 5 4
3 4 4 4 3 3 3 3 4 5 5 5 5 5 4 5 7 9 10 8 6 5 5 5 4 5 6 8 9 9 10 10 10 9 8 9 9 8 7 6 6 5 4 3
2 3 4 3 3 3 3 3 3 4 4 4 4 5 4 6 9 10 9 7 6 4 5 5 5 5 6 7 8 9 10 11 10 9 8 9 10 9 8 6 4 3 3 2
Wind_Speed
10 7 6 3 4 6 4 4 2 2 2 2 1 2 4 6 6 7 7 7 7 8 8 7 7 8 8 7 6 5 3 2 1 1 1 0 0 1 1 2 2 2 2 3
8 8 6 4 5 6 4 5 4 3 3 3 2 1 3 5 6 6 6 6 7 8 8 8 7 7 8 7 6 5 4 3 1 1 0 0 0 0 1 2 2 2 2 2
10 4 5 6 6 7 6 4 5 5 5 6 4 3 4 5 5 6 6 6 7 7 8 9 7 7 7 7 7 5 4 3 2 1 1 0 1 1 1 1 1 1 2 2
8 6 6 7 7 7 6 3 6 7 7 5 5 2 2 5 5 6 6 6 6 6 7 7 8 6 6 7 7 6 5 4 3 2 0 0 1 1 1 1 1 1 1 1
8 7 7 7 6 6 6 6 9 9 7 7 5 3 2 6 5 4 5 5 5 6 7 7 8 7 6 7 8 7 6 4 3 2 1 0 1 1 1 1 1 0 1 1
10 8 7 7 6 7 7 8 9 9 7 7 6 2 2 2 4 4 5 6 6 5 5 6 7 7 6 7 8 8 7 5 4 3 2 1 0 1 1 1 0 0 0 1
10 10 8 7 8 7 7 7 5 5 4 5 3 1 3 5 5 5 5 6 6 6 5 6 6 6 5 6 7 8 8 6 5 4 2 1 0 0 0 1 1 1 1 1
9 8 8 7 8 7 6 6 6 6 6 5 4 1 4 5 6 7 7 7 6 6 6 6 7 6 6 6 6 7 7 6 5 4 3 2 1 1 0 1 1 1 1 1
8 7 6 6 7 8 7 7 8 9 9 6 4 1 5 6 6 6 6 6 6 6 6 6 6 7 6 6 6 6 6 6 5 5 4 2 2 1 1 1 1 1 1 1
8 8 8 7 8 9 7 8 6 6 5 5 3 2 1 3 4 5 5 5 5 5 6 7 6 6 6 6 6 6 6 5 5 5 4 3 3 2 1 1 0 1 1 2
8 9 8 8 8 8 7 8 5 5 6 6 5 0 4 2 4 4 5 5 6 5 5 6 6 6 5 5 6 5 5 6 5 4 4 3 3 2 2 1 0 0 1 1
6 7 9 10 8 8 9 9 7 5 5 7 6 0 4 2 4 5 5 6 6 5 6 6 6 5 4 4 4 4 4 5 6 4 4 3 2 2 2 1 0 0 0 1
5 6 7 8 7 6 8 9 9 7 6 6 5 0 4 4 6 7 5 6 6 6 6 5 6 5 4 4 3 2 2 2 3 4 4 3 2 1 0 0 0 0 0 0
5 9 10 10 6 7 10 11 9 7 5 6 5 2 2 4 6 6 6 5 7 6 5 5 5 5 4 4 3 2 2 2 3 3 3 3 2 2 1 1 0 0 0 0
8 10 11 11 10 10 12 13 10 8 8 7 4 2 2 4 6 5 5 5 6 4 5 5 5 5 4 4 3 2 2 2 3 3 2 2 1 1 0 0 0 0 0 1
7 9 11 13 13 12 12 13 11 10 8 7 4 1 4 5 6 5 4 3 4 4 5 5 4 4 4 3 3 2 2 2 2 2 2 2 1 1 1 0 0 0 0 1
7 8 10 12 12 12 12 9 8 7 6 6 5 3 5 4 4 3 3 2 4 4 4 4 4 3 3 3 3 2 2 2 3 3 2 2 1 1 1 1 0 0 1 1
7 7 7 10 10 12 6 5 4 4 5 3 3 2 5 3 4 4 4 3 3 4 4 3 2 3 3 3 3 3 3 3 3 3 3 3 3 2 2 2 2 1 1 1
7 6 7 8 11 10 7 6 5 2 5 4 3 3 3 4 3 4 4 3 3 4 4 3 3 3 3 3 4 3 3 3 2 3 2 2 2 2 2 3 2 1 2 2
9 7 8 9 11 11 5 5 7 4 2 2 3 4 4 2 1 4 4 5 5 5 4 4 4 3 3 3 4 3 2 2 2 2 1 1 1 1 1 1 2 2 2 2
9 10 11 11 11 6 5 6 7 6 1 4 5 5 5 4 4 5 5 5 5 4 4 5 4 3 3 3 3 2 2 2 2 1 1 1 1 1 1 1 1 2 2 3
9 8 9 9 10 5 7 6 3 3 5 5 6 6 5 5 4 5 5 5 4 4 4 4 4 3 3 2 2 2 2 2 1 1 1 0 1 2 1 1 2 2 3 3
5 4 3 3 2 2 4 4 4 4 4 5 6 5 4 4 4 4 4 3 3 3 3 3 3 3 3 3 2 1 2 1 1 1 1 1 1 1 1 1 3 3 2 2
3 3 3 3 2 1 3 3 4 5 5 5 5 4 3 3 3 3 3 3 3 3 2 2 2 2 2 2 2 2 1 1 1 1 1 1 1 1 1 2 2 2 2 2
6 5 4 4 1 2 3 3 4 4 4 5 5 3 2 2 2 2 2 2 2 2 2 2 1 1 1 1 1 2 2 1 1 2 2 3 2 1 1 1 1 1 1 1
6 4 4 3 3 3 3 3 4 3 4 4 5 4 3 2 2 3 2 2 2 2 1 1 1 1 1 1 1 1 1 1 1 3 3 3 2 1 2 1 0 1 1 1
Wind_Direction
246 245 262 265 255 278 304 309 310 308 306 259 238 172 166 163 165 156 161 158 158 152 149 147 148 142 138 136 132 128 122 111 107 86 103 194 63 97 102 103 83 60 21 12
256 244 257 269 255 271 276 280 282 279 284 268 256 216 194 173 165 156 153 154 151 147 144 144 152 153 148 145 142 137 141 139 141 132 188 184 82 343 107 77 85 57 43 10
251 262 265 265 269 278 277 286 291 286 288 265 246 232 196 169 156 152 153 149 148 154 154 155 158 160 156 150 150 149 143 144 150 166 192 235 127 44 70 107 97 94 69 53
252 252 256 266 270 270 280 285 272 268 275 276 265 263 180 158 155 153 152 149 148 150 149 154 157 160 161 155 152 141 139 143 152 160 230 195 128 95 74 102 104 100 78 62
255 246 249 262 278 297 298 288 279 278 274 277 247 243 181 165 152 145 143 143 145 147 146 150 155 157 160 157 152 145 141 144 146 163 182 196 51 57 67 63 56 94 97 65
262 257 251 264 271 272 282 281 276 273 267 262 253 236 186 165 143 135 131 126 129 134 136 141 146 148 158 154 153 149 143 149 159 173 172 157 138 17 46 48 7 305 92 46
253 249 242 246 257 256 269 284 287 283 262 263 260 205 132 134 132 126 124 129 131 131 129 131 129 132 142 146 148 145 145 154 163 164 163 164 180 162 4 309 261 282 76 64
258 245 224 229 250 272 266 273 285 300 303 299 297 104 107 118 118 120 125 123 122 123 122 127 128 131 133 138 140 138 145 155 158 156 155 149 156 237 269 296 308 357 27 79
266 261 222 224 240 255 266 271 280 280 285 294 323 48 119 115 117 117 116 118 118 119 119 124 125 126 134 139 142 145 150 155 159 161 160 159 176 226 305 322 321 357 358 31
264 276 259 251 242 239 255 279 294 296 304 300 297 274 141 145 128 125 124 120 115 115 120 121 121 125 131 134 133 143 156 158 162 165 177 174 182 199 226 253 151 21 4 11
264 274 271 252 248 257 254 252 258 282 299 303 291 333 127 161 137 118 117 115 102 102 108 115 117 114 119 127 139 152 154 157 167 174 173 179 174 191 195 205 226 90 351 355
261 270 277 266 265 272 266 273 274 274 276 275 284 2 127 123 103 94 102 108 101 101 100 102 109 108 109 108 122 141 156 172 170 170 167 176 170 173 180 183 234 124 54 344
301 271 267 264 251 249 262 273 276 279 281 285 289 154 122 108 92 97 92 103 102 97 95 97 97 95 86 78 75 115 163 155 163 161 154 148 152 158 207 227 217 151 202 325
269 262 263 271 286 297 283 277 274 286 289 289 298 275 128 101 98 98 97 97 100 98 100 97 101 99 92 83 75 66 70 106 117 135 146 142 157 174 202 218 218 188 253 241
257 265 271 277 278 276 283 285 281 275 276 280 271 276 118 119 115 113 111 106 106 102 95 88 91 93 90 86 81 70 59 76 94 107 110 110 136 156 160 137 150 100 288 275
254 273 281 279 279 276 276 273 281 286 289 288 258 173 93 82 89 98 101 112 121 106 100 101 93 98 102 97 88 85 73 79 94 98 92 88 81 79 69 76 66 79 295 307
259 265 274 276 280 281 270 269 275 289 308 301 292 109 109 94 110 122 126 118 98 91 88 85 98 105 110 111 99 95 109 101 85 78 76 72 72 72 57 3 55 344 297 302
252 272 269 273 278 267 278 297 293 314 323 320 335 87 120 115 105 103 98 90 90 104 99 88 100 108 114 110 98 92 89 87 83 79 69 51 34 36 40 32 28 10 328 302
235 243 261 267 266 265 263 283 298 305 311 344 340 2 66 89 104 92 79 82 92 102 100 96 102 102 99 106 106 100 94 88 86 79 70 52 37 30 31 24 360 338 308 298
229 226 247 258 265 272 280 308 304 288 241 17 13 26 31 15 311 80 66 62 61 72 84 87 87 88 89 90 99 100 94 87 69 62 48 31 20 24 21 0 320 315 302 286
228 229 240 253 261 271 307 315 298 276 5 7 14 27 31 33 30 60 64 64 57 65 71 76 79 77 70 71 89 102 93 82 74 57 17 24 356 319 326 316 305 305 302 296
241 240 240 252 256 263 348 341 352 21 37 24 19 29 42 49 52 69 65 64 60 69 71 66 70 71 68 67 74 82 64 51 52 21 12 10 294 288 319 316 299 294 287 280
248 266 268 266 264 49 44 38 46 58 44 31 18 14 39 58 60 72 69 70 66 66 70 70 77 80 65 57 55 67 57 37 19 351 319 301 301 319 303 270 272 273 277 290
262 310 291 269 232 341 31 32 27 35 38 27 11 2 20 56 58 87 84 71 64 57 72 80 77 77 61 51 30 37 44 25 356 304 284 271 260 257 276 288 299 327 339 338
306 303 300 286 296 355 358 354 10 23 22 12 355 358 25 56 73 82 91 82 70 74 63 70 82 70 39 37 27 35 25 8 335 297 276 264 257 256 276 326 338 13 13 347
288 303 295 305 336 320 317 348 11 5 350 351 345 353 18 52 75 65 73 68 70 75 80 65 62 58 33 22 11 24 14 352 302 279 267 257 252 238 226 198 307 355 265 197